< < Back
Terminal Aerodrome Forecast


Current Version              Previous Versions:   1  2  3  4  5  6  7  8  9  

Terminal Aerodrome Forecast

659
FTUS42 KCHS 110527
TAFSAV
TAF
KSAV 110527Z 1106/1206 26006KT P6SM FEW070
     FM120000 VRB03KT P6SM BKN060=

Latest METAR

344
SAUS80 KWBC 111900
MTRSAV
METAR KSAV 111853Z 00000KT 10SM CLR 15/M04 A3017 RMK AO2 SLP215
T01501039 $


USA.gov is the U.S. government's official web portal to all federal, state and local government web resources and services.